| time (UTC) | temp F | wind direction | speed knots | gust knots | rain 1hr in | rain 24hr in | rain mn in | humidity % | barometer mb |
| 20260507182446 | 70 | 32 | 7.8 | 13.9 | 0.00 | 0.01 | 0.01 | 80 | 1014.4 |
| 20260507181935 | 70 | 16 | 8.7 | 13.9 | 0.00 | 0.01 | 0.01 | 80 | 1014.2 |
| 20260507181422 | 70 | 32 | 8.7 | 13.9 | 0.00 | 0.01 | 0.01 | 80 | 1014.3 |
| 20260507180236 | 70 | 16 | 7.0 | 12.2 | 0.00 | 0.01 | 0.01 | 80 | 1014.5 |
| 20260507175109 | 71 | 11 | 7.0 | 14.8 | 0.00 | 0.01 | 0.01 | 80 | 1014.5 |
| 20260507174613 | 71 | 357 | 7.8 | 14.8 | 0.00 | 0.01 | 0.01 | 80 | 1014.4 |
| 20260507174112 | 70 | 14 | 8.7 | 14.8 | 0.00 | 0.01 | 0.01 | 81 | 1014.4 |
| 20260507173607 | 70 | 38 | 9.6 | 14.8 | 0.00 | 0.01 | 0.01 | 81 | 1014.3 |
| 20260507173105 | 70 | 21 | 8.7 | 15.6 | 0.00 | 0.01 | 0.01 | 81 | 1014.2 |
| 20260507171940 | 69 | 7 | 8.7 | 15.6 | 0.00 | 0.01 | 0.01 | 81 | 1014.3 |
| 20260507171434 | 69 | 331 | 7.8 | 14.8 | 0.00 | 0.01 | 0.01 | 82 | 1014.5 |
| 20260507165650 | 69 | 31 | 9.6 | 16.5 | 0.00 | 0.01 | 0.01 | 82 | 1014.6 |
| 20260507164512 | 69 | 44 | 9.6 | 17.4 | 0.00 | 0.01 | 0.01 | 82 | 1014.6 |
| 20260507164011 | 69 | 28 | 9.6 | 17.4 | 0.00 | 0.01 | 0.01 | 82 | 1014.3 |
| 20260507163512 | 69 | 87 | 10.4 | 17.4 | 0.00 | 0.01 | 0.01 | 82 | 1014.2 |
| 20260507163005 | 69 | 2 | 9.6 | 16.5 | 0.00 | 0.01 | 0.01 | 82 | 1014.2 |
| 20260507162443 | 69 | 26 | 10.4 | 16.5 | 0.00 | 0.01 | 0.01 | 83 | 1014.3 |
| 20260507161930 | 69 | 13 | 9.6 | 16.5 | 0.00 | 0.01 | 0.01 | 83 | 1014.3 |
| 20260507161431 | 69 | 47 | 9.6 | 17.4 | 0.00 | 0.01 | 0.01 | 83 | 1014.3 |
| 20260507160934 | 69 | 15 | 9.6 | 17.4 | 0.00 | 0.01 | 0.01 | 83 | 1014.3 |
| 20260507160413 | 69 | 36 | 9.6 | 18.2 | 0.00 | 0.01 | 0.01 | 83 | 1014.3 |
| 20260507155900 | 69 | 41 | 9.6 | 18.2 | 0.00 | 0.01 | 0.01 | 83 | 1014.2 |
| 20260507155339 | 69 | 55 | 9.6 | 18.2 | 0.00 | 0.01 | 0.01 | 83 | 1014.3 |
| 20260507154844 | 69 | 21 | 9.6 | 18.2 | 0.00 | 0.01 | 0.01 | 83 | 1014.3 |
| 20260507154333 | 69 | 30 | 11.3 | 17.4 | 0.00 | 0.01 | 0.01 | 83 | 1014.3 |
| 20260507153835 | 69 | 42 | 11.3 | 17.4 | 0.00 | 0.01 | 0.01 | 83 | 1014.4 |
| 20260507153313 | 69 | 2 | 10.4 | 17.4 | 0.00 | 0.01 | 0.01 | 83 | 1014.5 |
| 20260507152811 | 69 | 13 | 9.6 | 17.4 | 0.00 | 0.01 | 0.01 | 83 | 1014.5 |
| 20260507152259 | 69 | 2 | 9.6 | 17.4 | 0.00 | 0.01 | 0.01 | 83 | 1014.2 |
| 20260507151753 | 69 | 15 | 10.4 | 17.4 | 0.00 | 0.01 | 0.01 | 83 | 1014.0 |
| 20260507151240 | 69 | 50 | 9.6 | 17.4 | 0.00 | 0.01 | 0.01 | 83 | 1013.9 |
| 20260507150740 | 69 | 11 | 8.7 | 17.4 | 0.00 | 0.01 | 0.01 | 83 | 1014.0 |
| 20260507150219 | 69 | 340 | 10.4 | 20.0 | 0.00 | 0.01 | 0.01 | 83 | 1013.9 |
| 20260507145659 | 69 | 26 | 11.3 | 20.0 | 0.00 | 0.01 | 0.01 | 83 | 1013.9 |
| 20260507144504 | 69 | 44 | 10.4 | 18.2 | 0.00 | 0.01 | 0.01 | 83 | 1014.0 |
| 20260507143348 | 69 | 42 | 8.7 | 18.2 | 0.00 | 0.01 | 0.01 | 83 | 1014.0 |
| 20260507142212 | 70 | 44 | 9.6 | 18.2 | 0.00 | 0.01 | 0.01 | 83 | 1013.8 |
| 20260507141029 | 70 | 64 | 9.6 | 17.4 | 0.00 | 0.01 | 0.01 | 83 | 1013.9 |
| 20260507140509 | 70 | 62 | 8.7 | 17.4 | 0.00 | 0.01 | 0.01 | 83 | 1013.9 |
| 20260507135949 | 70 | 26 | 8.7 | 17.4 | 0.00 | 0.01 | 0.01 | 83 | 1014.0 |
| 20260507135446 | 70 | 48 | 9.6 | 17.4 | 0.00 | 0.01 | 0.01 | 83 | 1013.9 |
| 20260507134938 | 70 | 357 | 10.4 | 17.4 | 0.00 | 0.01 | 0.01 | 84 | 1013.9 |
| 20260507134434 | 70 | 60 | 10.4 | 17.4 | 0.00 | 0.01 | 0.01 | 84 | 1013.9 |
| 20260507133940 | 70 | 2 | 9.6 | 15.6 | 0.00 | 0.01 | 0.01 | 84 | 1013.9 |
| 20260507133437 | 70 | 23 | 8.7 | 13.9 | 0.00 | 0.01 | 0.01 | 84 | 1014.0 |
| 20260507132919 | 70 | 7 | 7.8 | 13.9 | 0.00 | 0.01 | 0.01 | 84 | 1013.8 |
| 20260507132402 | 70 | 47 | 7.0 | 13.9 | 0.00 | 0.01 | 0.01 | 84 | 1013.9 |
| 20260507131859 | 70 | 36 | 6.1 | 13.0 | 0.00 | 0.01 | 0.01 | 84 | 1013.7 |
| 20260507130735 | 70 | 11 | 5.2 | 12.2 | 0.00 | 0.01 | 0.01 | 85 | 1013.8 |
| 20260507130216 | 70 | 53 | 5.2 | 12.2 | 0.00 | 0.01 | 0.01 | 85 | 1013.9 |
| 20260507125654 | 70 | 11 | 7.0 | 12.2 | 0.00 | 0.01 | 0.01 | 85 | 1013.7 |
| 20260507125139 | 70 | 46 | 7.0 | 12.2 | 0.00 | 0.01 | 0.01 | 85 | 1013.6 |
| 20260507124829 | 70 | 20 | 6.1 | 13.9 | 0.00 | 0.01 | 0.01 | 85 | 1013.5 |
| 20260507124318 | 70 | 346 | 5.2 | 13.9 | 0.00 | 0.01 | 0.01 | 85 | 1013.6 |
| 20260507123822 | 70 | 40 | 6.1 | 13.9 | 0.00 | 0.01 | 0.01 | 85 | 1013.3 |
| 20260507123324 | 70 | 57 | 7.0 | 13.9 | 0.00 | 0.01 | 0.01 | 85 | 1013.4 |
| 20260507122805 | 71 | 51 | 6.1 | 11.3 | 0.00 | 0.01 | 0.01 | 85 | 1013.2 |
| 20260507122244 | 71 | 42 | 6.1 | 11.3 | 0.00 | 0.01 | 0.01 | 85 | 1012.9 |
| 20260507121728 | 71 | 30 | 5.2 | 11.3 | 0.00 | 0.01 | 0.01 | 85 | 1012.9 |
| 20260507120607 | 71 | 34 | 6.1 | 14.8 | 0.00 | 0.01 | 0.01 | 85 | 1012.7 |
| 20260507120110 | 71 | 47 | 5.2 | 14.8 | 0.00 | 0.01 | 0.01 | 85 | 1012.7 |
| 20260507115605 | 71 | 44 | 4.3 | 15.6 | 0.00 | 0.01 | 0.01 | 85 | 1012.7 |
| 20260507115056 | 71 | 11 | 7.8 | 15.6 | 0.00 | 0.01 | 0.01 | 85 | 1012.5 |
| 20260507114553 | 71 | 46 | 8.7 | 15.6 | 0.00 | 0.01 | 0.01 | 85 | 1012.6 |
| 20260507114037 | 71 | 30 | 8.7 | 15.6 | 0.00 | 0.01 | 0.01 | 85 | 1012.5 |
| 20260507113524 | 71 | 30 | 8.7 | 13.9 | 0.00 | 0.01 | 0.01 | 85 | 1012.6 |
| 20260507113014 | 71 | 32 | 8.7 | 13.9 | 0.00 | 0.01 | 0.01 | 85 | 1012.4 |
| 20260507112516 | 71 | 28 | 8.7 | 17.4 | 0.00 | 0.01 | 0.01 | 85 | 1012.4 |
| 20260507111958 | 71 | 31 | 9.6 | 17.4 | 0.00 | 0.01 | 0.01 | 85 | 1012.3 |
| 20260507111507 | 71 | 25 | 9.6 | 17.4 | 0.00 | 0.01 | 0.01 | 85 | 1012.3 |
| 20260507110952 | 72 | 2 | 8.7 | 17.4 | 0.00 | 0.01 | 0.01 | 86 | 1012.2 |
| 20260507110448 | 72 | 331 | 7.8 | 15.6 | 0.00 | 0.01 | 0.01 | 86 | 1012.2 |
| 20260507105933 | 72 | 26 | 8.7 | 15.6 | 0.00 | 0.01 | 0.01 | 86 | 1012.0 |
| 20260507105414 | 72 | 11 | 9.6 | 15.6 | 0.00 | 0.01 | 0.01 | 86 | 1012.0 |
| 20260507104854 | 72 | 20 | 8.7 | 15.6 | 0.00 | 0.01 | 0.01 | 86 | 1011.9 |
| 20260507104358 | 72 | 26 | 7.0 | 14.8 | 0.00 | 0.01 | 0.01 | 86 | 1011.8 |
| 20260507103852 | 72 | 42 | 7.8 | 13.0 | 0.00 | 0.01 | 0.01 | 86 | 1011.8 |
| 20260507103354 | 72 | 42 | 8.7 | 13.9 | 0.00 | 0.01 | 0.01 | 86 | 1011.6 |
| 20260507102236 | 72 | 34 | 7.8 | 15.6 | 0.00 | 0.01 | 0.01 | 86 | 1011.6 |
| 20260507101739 | 72 | 59 | 8.7 | 15.6 | 0.00 | 0.01 | 0.01 | 86 | 1011.6 |
| 20260507100558 | 72 | 12 | 9.6 | 15.6 | 0.00 | 0.01 | 0.01 | 86 | 1011.5 |
| 20260507100041 | 72 | 30 | 10.4 | 15.6 | 0.00 | 0.01 | 0.01 | 86 | 1011.5 |
| 20260507095547 | 72 | 352 | 10.4 | 15.6 | 0.00 | 0.01 | 0.01 | 86 | 1011.6 |
| 20260507095025 | 73 | 333 | 8.7 | 15.6 | 0.00 | 0.01 | 0.01 | 87 | 1011.5 |
| 20260507094506 | 73 | 336 | 9.6 | 16.5 | 0.00 | 0.01 | 0.01 | 87 | 1011.6 |
| 20260507093313 | 73 | 2 | 9.6 | 16.5 | 0.00 | 0.01 | 0.01 | 87 | 1011.5 |
| 20260507092812 | 73 | 357 | 0.0 | 16.5 | 0.00 | 0.01 | 0.01 | 87 | 1011.5 |
| 20260507091640 | 73 | 2 | 9.6 | 13.9 | 0.00 | 0.01 | 0.01 | 87 | 1011.1 |
| 20260507091127 | 73 | 20 | 9.6 | 13.9 | 0.00 | 0.01 | 0.01 | 87 | 1011.0 |
| 20260507090627 | 73 | 33 | 7.8 | 13.9 | 0.00 | 0.01 | 0.01 | 87 | 1011.0 |
| 20260507090108 | 73 | 340 | 7.0 | 11.3 | 0.00 | 0.01 | 0.01 | 87 | 1011.0 |
| 20260507085554 | 73 | 21 | 7.8 | 14.8 | 0.00 | 0.01 | 0.01 | 87 | 1010.9 |
| 20260507084406 | 73 | 17 | 7.8 | 14.8 | 0.00 | 0.01 | 0.01 | 87 | 1010.9 |
| 20260507083913 | 74 | 2 | 7.8 | 13.9 | 0.00 | 0.01 | 0.01 | 87 | 1010.9 |
| 20260507083359 | 74 | 28 | 7.8 | 13.0 | 0.00 | 0.01 | 0.01 | 87 | 1010.8 |
| 20260507082840 | 74 | 344 | 7.8 | 13.0 | 0.00 | 0.01 | 0.01 | 87 | 1010.8 |
| 20260507082336 | 74 | 28 | 7.8 | 13.9 | 0.00 | 0.01 | 0.01 | 87 | 1010.9 |
| 20260507081813 | 74 | 11 | 7.0 | 13.9 | 0.00 | 0.01 | 0.01 | 87 | 1010.9 |
| 20260507080621 | 74 | 2 | 7.8 | 13.0 | 0.00 | 0.01 | 0.01 | 87 | 1010.8 |
| 20260507080109 | 75 | 7 | 7.0 | 14.8 | 0.00 | 0.01 | 0.01 | 87 | 1010.9 |
| 20260507074322 | 75 | 2 | 7.8 | 14.8 | 0.00 | 0.01 | 0.01 | 87 | 1010.9 |
| 20260507073139 | 75 | 2 | 5.2 | 13.0 | 0.00 | 0.01 | 0.01 | 87 | 1010.9 |
| 20260507072630 | 75 | 357 | 5.2 | 11.3 | 0.00 | 0.01 | 0.01 | 87 | 1011.0 |
| 20260507071501 | 75 | 344 | 4.3 | 11.3 | 0.00 | 0.01 | 0.01 | 87 | 1011.1 |
| 20260507070351 | 76 | 327 | 5.2 | 9.6 | 0.00 | 0.01 | 0.01 | 87 | 1011.1 |
| 20260507065839 | 76 | 334 | 5.2 | 8.7 | 0.00 | 0.01 | 0.01 | 87 | 1011.0 |
| 20260507065324 | 76 | 357 | 5.2 | 9.6 | 0.00 | 0.01 | 0.01 | 87 | 1011.1 |
| 20260507064805 | 76 | 53 | 4.3 | 9.6 | 0.00 | 0.01 | 0.01 | 87 | 1011.0 |
| 20260507063039 | 77 | 357 | 4.3 | 9.6 | 0.00 | 0.00 | 0.00 | 87 | 1011.1 |
| 20260507062540 | 78 | 324 | 3.5 | 7.0 | 0.00 | 0.00 | 0.00 | 88 | 1011.0 |
| 20260507062037 | 79 | 345 | 1.7 | 7.0 | 0.00 | 0.00 | 0.00 | 88 | 1011.0 |
| 20260507061520 | 80 | 337 | 0.0 | 1.7 | 0.00 | 0.00 | 0.00 | 88 | 1011.0 |
| 20260507060345 | 80 | 340 | 0.0 | 0.9 | 0.00 | 0.00 | 0.00 | 88 | 1010.8 |
| 20260507055827 | 80 | 340 | 0.0 | 0.0 | 0.00 | 0.00 | 0.00 | 88 | 1010.9 |
| 20260507055315 | 80 | 340 | 0.0 | 0.9 | 0.00 | 0.00 | 0.00 | 88 | 1010.8 |
| 20260507054126 | 80 | 309 | 0.0 | 0.9 | 0.00 | 0.00 | 0.00 | 88 | 1010.9 |
| 20260507053018 | 80 | 315 | 0.0 | 0.0 | 0.00 | 0.00 | 0.00 | 88 | 1010.9 |
| 20260507052501 | 80 | 317 | 0.0 | 2.6 | 0.00 | 0.00 | 0.00 | 88 | 1010.9 |
| 20260507051950 | 80 | 281 | 0.0 | 1.7 | 0.00 | 0.00 | 0.00 | 88 | 1011.0 |
| 20260507051442 | 80 | 315 | 0.0 | 1.7 | 0.00 | 0.00 | 0.00 | 88 | 1010.9 |
| 20260507050313 | 80 | 299 | 0.0 | 2.6 | 0.00 | 0.00 | 0.00 | 88 | 1010.9 |
| 20260507045201 | 80 | 238 | 0.0 | 0.9 | 0.00 | 0.00 | 0.00 | 87 | 1011.0 |
| 20260507044646 | 80 | 221 | 0.0 | 0.9 | 0.00 | 0.00 | 0.00 | 87 | 1011.0 |
| 20260507044124 | 80 | 214 | 0.0 | 0.0 | 0.00 | 0.00 | 0.00 | 87 | 1011.0 |
| 20260507042948 | 80 | 198 | 0.9 | 3.5 | 0.00 | 0.00 | 0.00 | 87 | 1010.7 |
| 20260507042455 | 80 | 209 | 0.9 | 2.6 | 0.00 | 0.00 | 0.00 | 87 | 1010.8 |
| 20260507041955 | 80 | 217 | 0.0 | 1.7 | 0.00 | 0.00 | 0.00 | 87 | 1010.8 |
| 20260507041445 | 80 | 213 | 0.0 | 2.6 | 0.00 | 0.00 | 0.00 | 87 | 1010.8 |
| 20260507040929 | 80 | 214 | 0.0 | 2.6 | 0.00 | 0.00 | 0.00 | 87 | 1010.7 |
| 20260507040435 | 80 | 211 | 0.0 | 5.2 | 0.00 | 0.00 | 0.00 | 87 | 1010.7 |
| 20260507035915 | 80 | 190 | 1.7 | 5.2 | 0.00 | 0.00 | 0.00 | 87 | 1010.6 |
| 20260507034751 | 80 | 191 | 3.5 | 5.2 | 0.00 | 0.00 | 0.00 | 87 | 1010.2 |
| 20260507034253 | 80 | 198 | 2.6 | 7.8 | 0.00 | 0.00 | 0.00 | 87 | 1010.0 |
| 20260507033747 | 80 | 190 | 3.5 | 7.8 | 0.00 | 0.00 | 0.00 | 87 | 1010.1 |
| 20260507032623 | 80 | 170 | 3.5 | 8.7 | 0.00 | 0.00 | 0.00 | 87 | 1009.7 |
| 20260507031427 | 80 | 186 | 4.3 | 8.7 | 0.00 | 0.00 | 0.00 | 87 | 1009.7 |
| 20260507030923 | 80 | 196 | 4.3 | 8.7 | 0.00 | 0.00 | 0.00 | 87 | 1009.6 |
| 20260507030421 | 80 | 2 | 3.5 | 7.0 | 0.00 | 0.00 | 0.00 | 87 | 1009.5 |
| 20260507025900 | 80 | 192 | 2.6 | 4.3 | 0.00 | 0.00 | 0.00 | 87 | 1009.6 |
| 20260507024737 | 80 | 181 | 2.6 | 5.2 | 0.00 | 0.00 | 0.00 | 87 | 1009.5 |
| 20260507024231 | 80 | 2 | 2.6 | 5.2 | 0.00 | 0.00 | 0.00 | 87 | 1009.6 |
| 20260507023728 | 80 | 167 | 2.6 | 5.2 | 0.00 | 0.00 | 0.00 | 87 | 1009.5 |
| 20260507023219 | 80 | 189 | 2.6 | 5.2 | 0.00 | 0.00 | 0.00 | 87 | 1009.5 |
| 20260507022709 | 80 | 156 | 3.5 | 7.8 | 0.00 | 0.00 | 0.00 | 87 | 1009.5 |
| 20260507022211 | 80 | 189 | 3.5 | 7.8 | 0.00 | 0.00 | 0.00 | 87 | 1009.4 |
| 20260507021650 | 80 | 161 | 5.2 | 9.6 | 0.00 | 0.00 | 0.00 | 86 | 1009.4 |
| 20260507021134 | 80 | 2 | 5.2 | 9.6 | 0.00 | 0.00 | 0.00 | 86 | 1009.4 |
| 20260507015951 | 80 | 194 | 7.0 | 9.6 | 0.00 | 0.00 | 0.00 | 86 | 1009.2 |
| 20260507015441 | 80 | 165 | 6.1 | 8.7 | 0.00 | 0.00 | 0.00 | 86 | 1009.1 |
| 20260507014940 | 80 | 194 | 5.2 | 8.7 | 0.00 | 0.00 | 0.00 | 86 | 1009.0 |
| 20260507014435 | 80 | 199 | 5.2 | 8.7 | 0.00 | 0.00 | 0.00 | 86 | 1008.9 |
| 20260507013914 | 80 | 2 | 5.2 | 8.7 | 0.00 | 0.00 | 0.00 | 86 | 1008.9 |
| 20260507013359 | 80 | 2 | 5.2 | 7.8 | 0.00 | 0.00 | 0.00 | 86 | 1008.8 |
| 20260507012856 | 80 | 188 | 5.2 | 7.8 | 0.00 | 0.00 | 0.00 | 86 | 1008.6 |
| 20260507012354 | 80 | 2 | 4.3 | 7.8 | 0.00 | 0.00 | 0.00 | 86 | 1008.6 |
| 20260507011843 | 80 | 161 | 3.5 | 7.8 | 0.00 | 0.00 | 0.00 | 85 | 1008.5 |
| 20260507011336 | 80 | 163 | 3.5 | 7.0 | 0.00 | 0.00 | 0.00 | 85 | 1008.6 |
| 20260507010823 | 81 | 177 | 3.5 | 7.0 | 0.00 | 0.00 | 0.00 | 85 | 1008.6 |
| 20260507005652 | 81 | 140 | 1.7 | 4.3 | 0.00 | 0.00 | 0.00 | 85 | 1008.3 |
| 20260507005132 | 81 | 204 | 1.7 | 4.3 | 0.00 | 0.00 | 0.00 | 85 | 1008.2 |
| 20260507004618 | 81 | 182 | 2.6 | 4.3 | 0.00 | 0.00 | 0.00 | 85 | 1008.2 |
| 20260507004123 | 81 | 2 | 2.6 | 5.2 | 0.00 | 0.00 | 0.00 | 85 | 1008.3 |
| 20260507003605 | 81 | 174 | 2.6 | 5.2 | 0.00 | 0.00 | 0.00 | 85 | 1008.2 |
| 20260507002443 | 81 | 140 | 2.6 | 5.2 | 0.00 | 0.00 | 0.00 | 84 | 1008.2 |
| 20260507001928 | 81 | 133 | 3.5 | 7.0 | 0.00 | 0.00 | 0.00 | 84 | 1008.2 |
| 20260507001408 | 81 | 199 | 3.5 | 7.0 | 0.00 | 0.00 | 0.00 | 84 | 1008.3 |
| 20260507000239 | 81 | 184 | 3.5 | 7.0 | 0.00 | 0.00 | 0.00 | 84 | 1008.2 |
| 20260506235716 | 81 | 2 | 3.5 | 6.1 | 0.00 | 0.00 | 0.00 | 84 | 1008.1 |
| 20260506235212 | 81 | 161 | 3.5 | 6.1 | 0.00 | 0.00 | 0.00 | 84 | 1008.1 |
| 20260506234719 | 81 | 2 | 3.5 | 6.1 | 0.00 | 0.00 | 0.00 | 84 | 1008.1 |
| 20260506234205 | 81 | 170 | 2.6 | 5.2 | 0.00 | 0.00 | 0.00 | 84 | 1008.1 |
| 20260506233656 | 82 | 100 | 2.6 | 4.3 | 0.00 | 0.00 | 0.00 | 84 | 1008.1 |
| 20260506232511 | 82 | 161 | 1.7 | 4.3 | 0.00 | 0.00 | 0.00 | 83 | 1007.9 |
| 20260506231949 | 82 | 164 | 2.6 | 4.3 | 0.00 | 0.00 | 0.00 | 83 | 1008.0 |
| 20260506231443 | 82 | 2 | 1.7 | 4.3 | 0.00 | 0.00 | 0.00 | 83 | 1008.0 |
| 20260506230940 | 82 | 176 | 1.7 | 5.2 | 0.00 | 0.00 | 0.00 | 83 | 1008.0 |
| 20260506230427 | 82 | 138 | 2.6 | 5.2 | 0.00 | 0.00 | 0.00 | 83 | 1008.0 |
| 20260506225920 | 82 | 188 | 2.6 | 7.0 | 0.00 | 0.00 | 0.00 | 83 | 1007.9 |
| 20260506225411 | 82 | 163 | 3.5 | 7.0 | 0.00 | 0.00 | 0.00 | 83 | 1007.8 |
| 20260506224914 | 82 | 174 | 3.5 | 7.0 | 0.00 | 0.00 | 0.00 | 83 | 1007.7 |
| 20260506223753 | 82 | 2 | 2.6 | 7.0 | 0.00 | 0.00 | 0.00 | 83 | 1007.8 |
| 20260506223234 | 82 | 2 | 2.6 | 7.0 | 0.00 | 0.00 | 0.00 | 83 | 1007.8 |
| 20260506222725 | 82 | 165 | 3.5 | 7.0 | 0.00 | 0.00 | 0.00 | 83 | 1007.7 |
| 20260506222222 | 82 | 173 | 3.5 | 7.0 | 0.00 | 0.00 | 0.00 | 82 | 1007.8 |
| 20260506221709 | 82 | 157 | 2.6 | 6.1 | 0.00 | 0.00 | 0.00 | 83 | 1007.8 |
| 20260506221201 | 82 | 171 | 2.6 | 7.0 | 0.00 | 0.00 | 0.00 | 83 | 1007.9 |
| 20260506220706 | 82 | 159 | 3.5 | 7.0 | 0.00 | 0.00 | 0.00 | 82 | 1007.8 |
| 20260506215540 | 82 | 188 | 4.3 | 7.8 | 0.00 | 0.00 | 0.00 | 83 | 1007.8 |
| 20260506215044 | 82 | 199 | 3.5 | 7.8 | 0.00 | 0.00 | 0.00 | 83 | 1007.9 |
| 20260506214550 | 82 | 117 | 3.5 | 7.8 | 0.00 | 0.00 | 0.00 | 83 | 1007.9 |
| 20260506214056 | 82 | 200 | 4.3 | 7.0 | 0.00 | 0.00 | 0.00 | 83 | 1008.0 |
| 20260506213538 | 82 | 150 | 4.3 | 7.0 | 0.00 | 0.00 | 0.00 | 83 | 1008.1 |
| 20260506213029 | 82 | 2 | 4.3 | 8.7 | 0.00 | 0.00 | 0.00 | 83 | 1008.1 |
| 20260506212516 | 82 | 161 | 5.2 | 8.7 | 0.00 | 0.00 | 0.00 | 83 | 1008.1 |
| 20260506211329 | 82 | 150 | 5.2 | 10.4 | 0.00 | 0.00 | 0.00 | 83 | 1008.2 |
| 20260506210821 | 82 | 214 | 5.2 | 10.4 | 0.00 | 0.00 | 0.00 | 82 | 1008.2 |
| 20260506210319 | 82 | 155 | 5.2 | 7.8 | 0.00 | 0.00 | 0.00 | 83 | 1008.1 |
| 20260506205802 | 82 | 150 | 4.3 | 7.8 | 0.00 | 0.00 | 0.00 | 83 | 1008.3 |
| 20260506205244 | 82 | 143 | 4.3 | 7.0 | 0.00 | 0.00 | 0.00 | 83 | 1008.3 |
| 20260506204726 | 82 | 185 | 4.3 | 9.6 | 0.00 | 0.00 | 0.00 | 84 | 1008.2 |
| 20260506204227 | 82 | 136 | 4.3 | 9.6 | 0.00 | 0.00 | 0.00 | 84 | 1008.3 |
| 20260506203706 | 82 | 128 | 5.2 | 9.6 | 0.00 | 0.00 | 0.00 | 84 | 1008.3 |
| 20260506202532 | 81 | 143 | 5.2 | 8.7 | 0.00 | 0.00 | 0.00 | 83 | 1008.3 |
| 20260506202025 | 81 | 150 | 5.2 | 8.7 | 0.00 | 0.00 | 0.00 | 83 | 1008.3 |
| 20260506201510 | 82 | 150 | 5.2 | 8.7 | 0.00 | 0.00 | 0.00 | 83 | 1008.5 |
| 20260506201001 | 82 | 169 | 4.3 | 7.8 | 0.00 | 0.00 | 0.00 | 84 | 1008.6 |
| 20260506200446 | 82 | 104 | 4.3 | 9.6 | 0.00 | 0.00 | 0.00 | 84 | 1008.6 |
| 20260506195946 | 82 | 157 | 4.3 | 9.6 | 0.00 | 0.00 | 0.00 | 84 | 1008.8 |
| 20260506195425 | 82 | 112 | 4.3 | 9.6 | 0.00 | 0.00 | 0.00 | 84 | 1008.8 |
| 20260506194917 | 82 | 92 | 4.3 | 9.6 | 0.00 | 0.00 | 0.00 | 84 | 1008.9 |
| 20260506194357 | 82 | 125 | 4.3 | 7.8 | 0.00 | 0.00 | 0.00 | 84 | 1009.0 |
| 20260506193848 | 82 | 111 | 4.3 | 7.8 | 0.00 | 0.00 | 0.00 | 84 | 1009.0 |
| 20260506193331 | 82 | 167 | 4.3 | 7.8 | 0.00 | 0.00 | 0.00 | 84 | 1009.1 |
| 20260506192813 | 82 | 2 | 4.3 | 7.8 | 0.00 | 0.00 | 0.00 | 84 | 1009.1 |
| 20260506192300 | 82 | 143 | 4.3 | 8.7 | 0.00 | 0.00 | 0.00 | 84 | 1009.2 |
| 20260506191803 | 82 | 165 | 4.3 | 8.7 | 0.00 | 0.00 | 0.00 | 84 | 1009.2 |
| 20260506191241 | 82 | 206 | 4.3 | 8.7 | 0.00 | 0.00 | 0.00 | 84 | 1009.4 |
| 20260506190725 | 82 | 194 | 4.3 | 8.7 | 0.00 | 0.00 | 0.00 | 84 | 1009.4 |
| 20260506185549 | 82 | 136 | 4.3 | 7.8 | 0.00 | 0.00 | 0.00 | 84 | 1009.4 |
| 20260506185050 | 82 | 174 | 4.3 | 7.8 | 0.00 | 0.00 | 0.00 | 84 | 1009.5 |
| 20260506184535 | 82 | 144 | 4.3 | 7.8 | 0.00 | 0.00 | 0.00 | 85 | 1009.6 |
| 20260506184015 | 82 | 152 | 3.5 | 7.8 | 0.00 | 0.00 | 0.00 | 85 | 1009.6 |
| 20260506183500 | 82 | 157 | 2.6 | 5.2 | 0.00 | 0.00 | 0.00 | 85 | 1009.6 |